• Processing (Info)

  • MPEC 2017-L36 : 2014 UH225

    The following Minor Planet Electronic Circular may be linked-to from your own Web pages, but must not otherwise be redistributed electronically.

    A form allowing access to any MPEC is at the bottom of this page.


    Read MPEC 2017-L35 Read MPEC 2017-L37


    M.P.E.C. 2017-L36                                Issued 2017 June 4, 14:45 UT
    
         The Minor Planet Electronic Circulars contain information on unusual
             minor planets and routine data on comets.  They are published
        on behalf of Division F of the International Astronomical Union by the
              Minor Planet Center, Smithsonian Astrophysical Observatory,
                              Cambridge, MA 02138, U.S.A.
    
                 Prepared using the Tamkin Foundation Computer Network
    
                                  MPC@CFA.HARVARD.EDU
                URL https://www.minorplanetcenter.net/    ISSN 1523-6714
    
                                      2014 UH225
    
    Observations:
         K14UM5H @C2013 08 09.49909 01 36 50.098+13 09 30.33         23.3 rqEL036568
         K14UM5H @C2013 08 09.54251 01 36 50.056+13 09 29.87         23.7 rqEL036568
         K14UM5H @C2013 09 02.41721 01 35 59.357+13 03 20.73         23.4 rqEL036568
         K14UM5H @C2013 09 02.46053 01 35 59.209+13 03 19.93         23.3 rqEL036568
         K14UM5H @C2013 09 03.43655 01 35 56.182+13 02 58.70         23.6 rqEL036568
         K14UM5H @C2013 09 03.48318 01 35 56.027+13 02 57.75         23.3 rqEL036568
         K14UM5H @C2013 10 08.49603 01 33 32.319+12 46 12.01         23.3 rqEL036568
         K14UM5H @C2013 10 30.41166 01 31 47.063+12 33 20.72         22.9 rqEL036568
         K14UM5H @C2013 10 30.49029 01 31 46.686+12 33 18.48         23.5 rqEL036568
         K14UM5H @C2013 11 01.49022 01 31 37.299+12 32 07.38         23.4 rqEL036568
         K14UM5H @C2013 11 28.24590 01 29 47.677+12 17 17.41         23.3 rqEL036568
         K14UM5H @C2013 11 28.26487 01 29 47.610+12 17 16.77         23.5 rqEL036568
         K14UM5H @C2013 12 04.38623 01 29 28.456+12 14 20.82         23.4 rqEL036568
         K14UM5H @C2013 12 29.24699 01 28 42.908+12 05 17.64         23.2 rqEL036568
         K14UM5H @C2013 12 29.25183 01 28 42.903+12 05 17.49         23.3 rqEL036568
         K14UM5H @C2013 12 30.33812 01 28 42.201+12 05 01.08         23.4 rqEL036568
         K14UM5H @C2013 12 30.34280 01 28 42.206+12 05 00.96         23.5 rqEL036568
         K14UM5H @C2014 01 02.23377 01 28 40.938+12 04 20.16         23.5 rqEL036568
         K14UM5H @C2014 01 02.28087 01 28 40.925+12 04 19.46         23.8 rqEL036568
         K14UM5H @C2014 01 02.36222 01 28 40.898+12 04 18.31         23.5 rqEL036568
         K14UM5H @C2014 01 03.24172 01 28 40.689+12 04 06.98         22.6 rqEL036568
         K14UM5H @C2014 07 26.51389 01 42 37.234+12 58 36.70         23.4 rqEL036568
         K14UM5H @C2014 07 26.55715 01 42 37.251+12 58 36.59         23.6 rqEL036568
         K14UM5H @C2014 07 26.60045 01 42 37.259+12 58 36.51         23.5 rqEL036568
         K14UM5H @C2014 08 24.45000 01 42 09.008+12 54 03.41         23.5 rqEL036568
         K14UM5H @C2014 08 24.52394 01 42 08.840+12 54 02.16         23.7 rqEL036568
         K14UM5H @C2014 08 30.42828 01 41 54.135+12 52 12.98         23.4 rqEL036568
         K14UM5H @C2014 08 30.53659 01 41 53.829+12 52 10.87         23.3 rqEL036568
         K14UM5H @C2014 09 18.45522 01 40 49.756+12 44 34.19         23.4 rqEL036568
         K14UM5H @C2014 09 18.49795 01 40 49.577+12 44 32.97         23.5 rqEL036568
         K14UM5H @C2014 09 23.49621 01 40 29.059+12 42 08.79         23.4 rqEL036568
         K14UM5H*@C2014 10 22.27847 01 38 15.011+12 26 16.52         23.3 rqEL036568
         K14UM5H @C2014 10 22.32309 01 38 14.798+12 26 14.94         23.4 rqEL036568
         K14UM5H @C2014 10 22.36779 01 38 14.574+12 26 13.40         23.2 rqEL036568
         K14UM5H @C2014 10 23.46129 01 38 09.261+12 25 34.88         23.3 rqEL036568
         K14UM5H @C2014 10 25.47724 01 37 59.511+12 24 23.81         23.3 rqEL036568
         K14UM5H @C2014 11 20.20843 01 36 03.908+12 09 44.86         23.4 rqEL036568
         K14UM5H @C2014 11 20.34891 01 36 03.337+12 09 40.27         23.4 rqEL036568
         K14UM5H @C2015 10 10.50942 01 45 00.076+12 20 34.72         23.4 rqEL036568
         K14UM5H @C2015 10 10.57597 01 44 59.755+12 20 32.45         23.6 rqEL036568
         K14UM5H @C2015 10 15.48343 01 44 36.233+12 17 46.06               qEL036568
         K14UM5H @C2015 10 15.54980 01 44 35.914+12 17 43.77               qEL036568
         K14UM5H @C2015 12 07.44507 01 40 49.329+11 49 14.65         23.6 wqEL036568
    
    Observer details:
    568 Mauna Kea.  Observers M. T. Bannister, J. J. Kavelaars, B. J. Gladman,
        J.-M. Petit, T. Burdullis.  Measurers S. D. J. Gwyn, Y.-T. Chen,
        M. Alexandersen, M. Schwamb.  3.6-m Canada-France-Hawaii Telescope + CCD.
    
    Orbital elements:
    2014 UH225
    Epoch 2017 Sept. 4.0 TT = JDT 2458000.5                 MPC
    M 188.27958              (2000.0)            P               Q
    n   0.00412431     Peri.  352.25539     -0.91056794     +0.32643554
    a  38.5095767      Node   210.87682     -0.34780949     -0.93656563
    e   0.0403198      Incl.   29.61258     -0.22337095     +0.12761137
    P 239              H    7.4           G   0.15           U   4
    Residuals in seconds of arc
    130809 568  0.1-  0.1+    131230 568  0.1-  0.1+    140923 568  0.0   0.0
    130809 568  0.0   0.0     131230 568  0.0   0.0     141022 568  0.0   0.1+
    130902 568  0.1+  0.0     140102 568  0.0   0.0     141022 568  0.1+  0.1+
    130902 568  0.1-  0.1+    140102 568  0.0   0.1-    141022 568  0.0   0.1+
    130903 568  0.0   0.0     140102 568  0.1+  0.1-    141023 568  0.0   0.0
    130903 568  0.1-  0.1+    140103 568  0.0   0.0     141025 568  0.0   0.0
    131008 568  0.1-  0.1+    140726 568  0.0   0.0     141120 568  0.1+  0.1+
    131030 568  0.2+  0.6-    140726 568  0.0   0.0     141120 568  0.1+  0.0
    131030 568  0.2+  0.0     140726 568  0.0   0.0     151010 568  0.0   0.1-
    131101 568  0.1-  0.1-    140824 568  0.1-  0.0     151010 568  0.0   0.1-
    131128 568  0.0   0.0     140824 568  0.0   0.0     151015 568  0.0   0.0
    131128 568  0.0   0.0     140830 568  0.0   0.0     151015 568  0.1+  0.0
    131204 568  0.0   0.1-    140830 568  0.1-  0.1+    151207 568  0.0   0.1-
    131229 568  0.0   0.0     140918 568  0.0   0.0
    131229 568  0.0   0.1-    140918 568  0.0   0.0
    
    Ephemeris:
    2014 UH225               a,e,i = 38.51, 0.04, 30                 q = 36.957
    Date    TT    R. A. (2000) Decl.     Delta      r     Elong.  Phase     V
    2017 05 05    01 54 02.4 +11 58 56  41.0281 40.0491    13.7     0.3    23.6
    ...
    2017 05 20    01 55 32.8 +12 05 26  40.9410 40.0489    27.8     0.7    23.6
    ...
    2017 05 28    01 56 17.6 +12 08 35  40.8712 40.0488    35.3     0.8    23.6
    ...
    2017 06 03    01 56 49.0 +12 10 44  40.8092 40.0487    41.0     1.0    23.6
    2017 06 04    01 56 54.0 +12 11 05  40.7981 40.0487    41.9     1.0    23.6
    2017 06 05    01 56 59.0 +12 11 25  40.7868 40.0487    42.8     1.0    23.6
    ...
    2017 06 11    01 57 27.6 +12 13 19  40.7149 40.0486    48.4     1.1    23.6
    ...
    2017 06 19    01 58 02.0 +12 15 30  40.6087 40.0485    55.9     1.2    23.6
    ...
    2017 07 04    01 58 53.2 +12 18 23  40.3840 40.0482    70.0     1.4    23.6
    
    A. U. Tomatic                (C) Copyright 2017 MPC           M.P.E.C. 2017-L36
    

    Read MPEC 2017-L35 Read MPEC 2017-L37


    MPEC number:

    Enter an MPEC number in one of the following forms:

    • 1997-B01 (the full form)
    • J97B01 (the packed version of the full form)
    • B01 (the abbreviated form)